Regional Weather Roundup
Issued by NWS

Home | Current Version | Previous Version | Text Only | Print | Product List | Glossary On
Versions: 1 2 3 4 5 6 7 8 9 10 11 12 13 14 15 16 17 18 19 20 21 22 23 24 25 26 27 28 29 30 31 32 33 34 35 36 37 38 39 40 41 42 43 44 45 46 47 48 49 50
245
ASUS44 KEWX 260203
RWRTX
SOUTH TEXAS REGIONAL WEATHER ROUNDUP
NATIONAL WEATHER SERVICE AUSTIN/SAN ANTONIO TX
900 PM CDT TUE APR 25 2017

NOTE: "FAIR" INDICATED FEW OR NO CLOUDS BELOW 12,000 FEET WITH NO
SIGNIFICANT WEATHER AND/OR OBSTRUCTIONS TO VISIBILITY.

* - THESE STATIONS ARE NOT NWS OR FAA STATIONS...AND ARE NOT SUBJECT
    TO NWS AND FAA QUALITY CONTROL.

TXZ171-172-183>190-260300-
TEXAS HILL COUNTRY AND EDWARDS PLATEAU

CITY           SKY/WX    TMP DP  RH WIND       PRES   REMARKS
JUNCTION       CLEAR     81  60  48 S9        29.48R
*LLANO         PTCLDY    81  64  57 CALM      29.49S
BURNET         PTCLDY    79  67  66 S8G17     29.50R
*HORSESHOE BAY PTCLDY    80  69  69 SE9       29.48R
*KERRVILLE     CLOUDY    77  66  69 E5        29.51S
*FREDERICKSBRG PTCLDY    74  62  64 CALM      29.51S
*ROCKSPRINGS   CLEAR     75  61  60 CALM      29.55S
*BOERNE STAGE  PTCLDY    77  70  78 SE12G21   29.52R
*CASTROVILLE   PTCLDY    82  70  68 SE12G18   29.49R
HONDO          CLOUDY    81  65  58 E9        29.46S
*UVALDE        CLOUDY    80  64  58 CALM      29.45R
DEL RIO        CLOUDY    80  64  58 NE5       29.42S
LAUGHLIN AFB   MOCLDY    76  65  68 NE7       29.43R
CARRIZO SPRGS  CLOUDY    84  54  34 SE5       29.40R
*EAGLE PASS    NOT AVBL
$$

TXZ173-191>194-202-209-217>225-228-260300-
CENTRAL AND SOUTH CENTRAL TEXAS

CITY           SKY/WX    TMP DP  RH WIND       PRES   REMARKS
GEORGETOWN     CLEAR     79  66  65 SE12G21   29.49R
AUSTIN/BERGSTM PTCLDY    78  71  79 SE16G25   29.49S
AUSTIN/MABRY   CLOUDY    78  70  76 SE9G18    29.51R
*AUSTIN/EXEC   PTCLDY    75  72  88 SE13      29.51R
*LAGO VISTA    PTCLDY    78  69  74 SE9G17    29.51S
SAN MARCOS     CLOUDY    75  70  83 S13G20    29.52R
NEW BRAUNFELS  CLOUDY    78  71  79 S18       29.50R
RANDOLPH AFB   PTCLDY    76  75  95 SE14      29.50R
PT SAN ANTONIO PTCLDY    80  72  76 SE15      29.47R
SAN ANTONIO    MOCLDY    80  71  74 E16       29.49R
STINSON FIELD  CLOUDY    81  71  71 SE15G21   29.46S
*LA GRANGE     CLOUDY    77  72  84 S10       29.51R
*GIDDINGS      PTCLDY    75  69  81 S8G20     29.53S
*GONZALES      CLOUDY    77  73  87 SE12G21   29.51R
$$

TXZ163>164-176>182-195>201-210>213-226-227-235-260300-
SOUTHEAST TEXAS

CITY           SKY/WX    TMP DP  RH WIND       PRES   REMARKS
COLLEGE STN    CLOUDY    78  69  73 S13G23    29.54R
*BRYAN         CLOUDY    77  68  74 S15G23    29.54S
*CALDWELL      NOT AVBL
*CROCKETT      LGT RAIN  75  68  78 S10G16    29.58R
*BRENHAM       CLOUDY    78  70  76 S10G18    29.56R
HUNTSVILLE     CLOUDY    78  66  66 S13G20    29.55S
CONROE         CLOUDY    76  68  76 S12       29.58R
HOUSTON BUSH   MOCLDY    77  69  76 S18G24    29.58S
HOUSTON HOBBY  CLOUDY    76  70  82 S9        29.59R
*HOUSTON SW AP CLOUDY    75  70  84 S8G16     29.60S
PEARLAND       CLOUDY    78  71  79 S13       29.61S
HOUSTON HOOKS  CLOUDY    78  69  73 S8G17     29.58R
ELLINGTON FLD  MOCLDY    77  70  78 SE14      29.61R
SUGAR LAND     CLOUDY    78  70  76 S18G24    29.58R
*HOUSTON EXEC  CLOUDY    75  70  83 S13       29.59R
*CLEVELAND MUN CLOUDY    75  69  83 S13G18    29.59S
*WHARTON       CLOUDY    75  69  79 SE15      29.59R
*COLUMBUS      CLOUDY    75  70  83 S13G18    29.56F
*EAGLE LAKE    CLOUDY    77  72  84 S15G23    29.56F
$$

TXZ214>216-236>238-260300-
THE UPPER TEXAS COAST

CITY           SKY/WX    TMP DP  RH WIND       PRES   REMARKS
*ORANGE        CLOUDY    75  71  86 S10G17    29.66R
PORT ARTHUR    CLOUDY    75  70  84 S15       29.63S
GALVESTON      CLOUDY    78  73  84 S16       29.61F
ANGLETON       CLOUDY    79  72  79 S18G26    29.59S
*BAY CITY      CLOUDY    76  72  86 SE10      29.58S
PALACIOS       MOCLDY    76  71  85 SE17G25   29.56R
$$

TXZ229>234-239>247-260300-
TEXAS COASTAL BEND AND RIO GRANDE PLAINS

CITY           SKY/WX    TMP DP  RH WIND       PRES   REMARKS
VICTORIA       CLOUDY    77  71  82 S16G25    29.55R
*BEEVILLE      MOCLDY    76  76 100 SE8       29.50S
ROCKPORT       MOCLDY    77  72  84 SE14G33   29.52R
*PORT ARANSAS  MOCLDY    76  73  89 S21G30    29.52S FOG
*PORT LAVACA   CLOUDY    76  73  93 S16G22    29.56R
*INGLESIDE     MOCLDY    78  73  85 S23G32    29.52R
CORPUS CHRISTI PTCLDY    77  73  87 S25G32    29.51R
CORPUS NAS     MOCLDY    78  75  90 S21G33    29.52R
*ROBSTOWN      CLEAR     79  73  82 SE23      29.50S
ALICE          CLEAR     78  72  81 SE17G24   29.47R
KINGSVILLE NAS PTCLDY    78  75  90 SE22G29   29.49R
COTULLA        CLOUDY    89  58  34 SE10      29.42R
*FAITH RANCH   CLEAR     91  46  21 SE10      29.42R
LAREDO         CLOUDY    90  61  37 SE13      29.44R HX  90
$$

TXZ248>255-260300-
DEEP SOUTH TEXAS

CITY           SKY/WX    TMP DP  RH WIND       PRES   REMARKS
BROWNSVILLE    CLOUDY    80  73  79 S21G31    29.54R
PORT ISABEL    CLOUDY    80  73  79 S23G33    29.53R
*SOUTH PADRE   NOT AVBL
HARLINGEN      MOCLDY    79  75  87 S21G29    29.51R
*HEBBRONVILLE  CLEAR     84  68  58 S12       29.49R
MCALLEN        CLEAR     81  73  76 SE17      29.51R
*WESLACO       MOCLDY    78  73  82 S17       29.50S
FALFURRIAS     CLEAR     84  69  60 SE10      29.48R
EDINBURG       CLEAR     82  72  72 SE10      29.51R
*ZAPATA        CLEAR     90  69  49 SE10G24   29.45R HX  94
$$

TXZ213>215-236>238-242>244-246-247-251-254-255-260300-
CMAN STATIONS

STATION/POSITION TIME  TEMP    WIND        PRES    WAVE
                       AIR SEA DIR/SP/G            HT/PER
                 (UTC) (F)     (DEG/KT/KT) (MB)    (FT/S)
SABINE PASS      0130   75 77  160/ 13/ 20 1005.1
SEA RIM ST PARK  0100   75     160/ 14/ 17 1004.1
NORTH JETTY/GLS  0130      76  150/ 19/ 23 1002.5
EAGLE POINT      0130   76 74  180/ 16/ 18 1002.2
MORGANS POINT    0130   76 75  150/  9/ 13 1002.2
MISSION/ARANSAS  0100   77                 1000.0
PORT O`CONNOR    0130   76     150/ 19/ 23 1000.3
PORT ARANSAS     0100   76 78  140/ 26/ 31  999.3
MALAQUITE BEACH  0130   77 79  140/ 26/ 32  999.5
BAFFIN BAY       0130   77 78  110/ 21/ 29  999.1
PORT ISABEL      0130   78 77  160/ 19/ 24  999.8
$$

GMZ080-GMZ150>470-260300-
OFFSHORE BUOY REPORTS

STATION/POSITION TIME  TEMP    WIND        PRES    WAVE
                       AIR SEA DIR/SP/G            HT/PER
                 (UTC) (F)     (DEG/KT/KT) (MB)    (FT/S)
20 E GALVESTON   0050   76 76  170/ 16/ 17 1002.9    4/ 6
90 E PT ARANSAS  0050   77 76  140/ 17/ 21 1001.6    6/ 7
35 NE PT MANSFLD 0050   77     160/ 17/ 21  999.5    6/ 7
200 E PT ISABEL  0050   78 79  150/ 19/ 23 1003.8    6/ 6
$$




USA.gov is the U.S. government's official web portal to all federal, state and local government web resources and services.